GFSWCAN_700_spd_135.txt.gz
Wind_Speed
36 37 38 38 37 37 36 34 33 33 32 33 33 33 33 33 31 27 24 25 26 30 27 25 20 23 24 24 23 21 21 24 22 20 15 15 13 13 15 18 11 10 10 13 21 12 16 5 6 10 11 26 35 37
40 38 38 39 40 38 38 37 36 36 36 34 34 32 30 32 31 31 28 26 27 30 33 30 28 21 21 22 22 23 26 21 12 14 11 9 14 14 15 11 17 17 22 20 19 21 18 23 31 38 40 40 39 39
36 38 40 40 42 42 41 39 37 37 34 33 32 31 31 28 31 32 28 32 34 37 40 36 21 16 18 23 29 29 31 34 35 34 35 29 30 28 28 29 31 32 31 35 37 41 36 32 38 41 30 31 30 34
39 39 40 40 40 37 36 35 33 31 31 29 30 30 28 26 30 32 32 33 34 37 43 44 29 28 29 31 25 27 23 26 35 35 35 39 39 33 36 36 37 34 36 41 44 39 44 31 27 31 35 33 33 33
36 34 34 34 33 33 32 31 30 30 29 29 29 28 27 29 28 32 36 34 33 33 42 49 49 45 40 43 40 37 35 32 31 37 42 45 42 39 47 47 53 38 37 44 50 34 42 43 44 46 46 41 38 41
34 32 31 31 30 29 29 29 29 29 28 27 28 30 32 33 35 36 40 41 35 34 40 49 40 41 36 37 37 34 32 34 33 37 44 47 46 43 46 50 47 35 36 38 47 44 46 48 45 44 49 46 41 39
32 31 31 30 30 30 29 30 29 29 28 27 27 27 28 30 33 31 31 33 28 22 28 34 32 19 2 2 12 18 20 29 36 44 49 49 46 42 53 65 53 34 37 41 44 40 46 42 50 48 49 45 43 44
34 34 33 33 32 32 31 31 30 29 29 29 29 28 28 29 30 32 25 29 31 30 34 32 27 25 31 27 21 26 29 30 32 33 37 41 43 45 52 55 44 36 40 39 39 43 41 37 33 34 34 37 36 36
32 32 32 32 32 32 31 31 31 30 30 31 30 30 30 30 30 30 29 33 37 34 28 27 30 25 19 13 10 17 26 27 33 39 38 37 40 44 47 43 39 39 38 37 37 37 33 35 35 31 32 32 33 30
30 30 31 31 31 31 30 30 30 29 29 29 29 29 32 32 30 30 31 32 36 41 40 50 48 48 45 40 36 36 35 31 32 39 41 40 51 49 39 37 36 31 29 29 33 29 31 33 35 31 29 30 33 33
29 29 29 29 28 28 27 27 28 27 27 27 28 29 28 28 28 28 22 14 12 15 26 36 33 35 38 37 35 27 22 18 22 25 27 27 39 30 31 34 33 28 26 23 26 25 25 28 28 27 27 26 27 27
29 29 28 27 27 26 25 24 25 24 23 22 22 24 26 24 23 16 14 13 15 14 19 23 24 24 28 30 27 19 24 13 13 15 11 11 25 29 33 32 29 23 22 23 24 23 21 19 22 22 23 23 23 24
28 28 28 27 25 24 23 22 20 18 17 15 18 20 16 15 20 13 14 14 14 19 19 16 18 19 22 25 15 10 7 10 8 8 20 30 35 32 30 32 31 29 22 18 19 17 17 18 21 21 21 23 23 21
28 27 27 25 25 23 21 19 18 18 17 20 19 23 15 15 12 22 27 25 21 23 25 27 26 22 21 18 15 12 18 25 17 19 32 33 34 29 25 27 27 19 18 17 17 22 24 27 30 24 17 17 17 17
28 27 26 26 25 23 21 20 19 22 23 26 18 17 25 27 26 24 18 16 16 20 25 26 27 26 28 23 22 16 12 12 15 23 23 23 26 31 31 27 22 26 24 17 6 10 12 15 17 18 17 15 16 14
28 28 29 26 24 22 21 23 25 26 31 34 36 26 25 23 21 22 23 26 26 29 33 34 32 24 28 14 13 16 8 7 11 16 12 16 17 15 9 20 25 16 14 4 9 12 15 17 18 20 23 23 18 16
30 32 28 26 24 24 23 26 29 33 32 40 47 49 47 45 39 30 27 29 29 30 30 29 29 29 26 23 33 35 34 25 20 20 12 18 23 29 37 31 20 9 5 12 16 21 21 24 27 29 27 26 27 22
35 30 28 25 23 25 28 31 32 38 42 47 47 43 40 42 42 40 39 39 38 41 39 43 44 46 42 31 20 27 35 27 24 40 44 40 37 41 44 46 43 34 32 34 36 34 36 37 36 35 33 33 33 31
33 30 27 25 25 27 30 35 38 42 45 45 45 44 42 41 40 38 36 34 36 38 39 40 32 30 38 43 48 49 49 47 47 45 37 34 33 38 42 44 44 44 42 41 40 39 41 42 44 44 43 39 37 36
29 27 27 26 27 29 32 34 36 35 37 37 38 38 37 39 38 38 38 39 40 41 41 47 52 53 52 51 49 49 52 43 38 45 42 35 34 36 38 38 39 38 41 41 38 37 37 39 39 39 40 39 38 36
27 29 28 29 30 33 37 34 28 27 27 30 29 27 32 32 27 31 34 32 37 40 41 43 46 48 50 53 47 38 37 43 44 39 34 39 38 37 33 30 30 33 36 37 37 36 35 36 35 36 36 34 34 36
31 28 30 29 31 33 39 40 35 26 26 27 32 32 34 34 33 30 27 38 36 32 34 35 39 38 38 41 45 48 48 45 41 36 36 35 34 29 27 26 29 32 34 36 37 39 40 39 37 35 35 34 33 32
30 30 30 31 33 36 34 32 35 39 42 44 45 45 45 45 44 42 42 44 43 40 37 37 37 35 37 37 39 37 35 35 34 33 36 33 31 30 27 25 28 34 37 38 41 43 42 41 39 38 37 37 35 34
30 32 33 29 31 29 34 35 40 42 44 45 46 45 45 43 39 40 43 42 40 34 35 36 37 38 34 34 36 37 36 32 33 34 38 38 36 30 31 30 28 30 33 35 35 33 34 35 35 37 36 36 33 32
31 29 33 31 33 36 42 43 44 43 46 45 40 37 43 39 34 38 43 44 38 34 35 35 30 31 36 36 36 33 30 36 36 37 40 39 35 36 34 32 33 30 29 30 30 30 28 30 30 29 29 30 32 33
29 28 29 32 39 38 40 43 48 51 48 44 43 43 43 41 40 39 39 34 32 33 31 28 25 28 29 26 28 30 31 29 34 36 33 38 36 36 36 35 34 28 26 28 31 32 30 29 30 26 27 28 31 34
41 33 27 32 33 38 35 40 40 36 33 37 41 39 35 32 34 39 38 28 28 24 26 28 29 29 27 25 26 28 25 23 28 32 37 37 37 38 37 38 39 34 34 33 32 33 35 33 30 27 28 31 35 34
40 39 38 37 41 44 41 40 43 43 43 43 38 35 35 40 42 33 28 30 29 29 30 30 30 32 32 31 31 33 33 32 31 31 31 33 35 37 39 39 41 38 37 37 36 36 38 38 32 30 33 36 35 33
43 40 39 42 38 39 43 42 42 44 45 42 39 38 43 43 41 31 30 27 27 29 31 33 33 34 37 38 38 39 39 38 39 42 44 45 45 45 43 42 41 40 38 37 35 36 37 36 31 32 36 37 37 35
46 42 44 45 43 44 44 45 44 39 39 40 40 40 38 35 34 31 30 30 32 32 32 36 37 35 33 34 36 36 36 38 40 43 46 48 47 44 44 44 43 42 40 39 38 35 33 29 30 34 35 37 35 31
44 43 44 45 45 39 40 41 41 41 41 41 38 40 40 34 32 33 35 36 36 38 40 39 39 38 40 40 42 43 43 41 43 44 44 44 44 43 40 39 42 44 42 41 38 35 29 28 31 32 31 29 20 12
38 41 43 43 38 34 34 35 37 36 33 32 31 33 33 36 38 35 25 27 32 38 39 39 37 32 32 36 37 36 37 37 34 37 41 44 44 42 38 35 33 33 35 36 33 29 26 28 28 28 25 14 11 9
37 34 35 36 30 30 29 32 34 31 27 28 30 31 32 35 38 39 37 28 28 29 26 27 30 33 34 34 35 36 37 39 40 40 41 38 31 28 27 24 22 23 28 28 27 25 24 24 24 22 14 11 9 11

GFSWCAN_700_spd_138.txt.gz
Wind_Speed
49 47 46 42 42 39 38 36 34 34 33 32 33 33 34 33 33 33 29 28 26 29 28 25 14 11 16 16 20 20 21 22 19 18 14 16 14 13 15 19 14 14 11 15 21 13 16 5 4 8 6 23 39 37
56 52 48 43 43 41 39 37 34 34 35 36 37 35 35 34 31 32 32 29 29 27 29 33 30 29 29 28 26 27 26 24 13 12 11 9 12 12 14 14 20 21 27 16 20 19 22 26 31 41 43 38 38 39
52 49 45 44 41 39 36 37 36 35 36 35 33 33 32 31 29 28 27 30 31 32 36 24 8 13 5 11 21 32 28 24 29 30 35 36 34 29 29 26 27 32 28 36 41 45 40 40 37 38 41 37 29 30
40 34 34 35 35 35 36 36 35 34 33 32 31 30 28 27 27 23 26 26 29 31 39 37 6 3 7 12 15 23 26 34 34 32 34 37 41 32 36 36 38 34 35 42 49 42 41 41 36 32 34 38 42 42
26 27 28 30 31 32 32 32 33 32 31 30 27 26 25 27 27 28 29 30 25 29 39 47 48 43 38 37 35 33 36 31 32 36 40 44 44 41 47 47 56 46 44 48 56 47 45 43 39 41 45 45 46 50
26 27 30 32 32 31 30 30 29 30 28 27 25 26 25 26 25 27 30 29 28 32 34 35 36 41 21 7 22 31 29 27 30 37 42 43 42 39 38 52 49 42 32 35 45 38 42 43 37 34 39 41 42 48
29 31 33 33 33 31 30 29 29 28 27 27 27 27 27 28 27 25 26 26 26 26 28 24 21 6 6 4 1 16 27 28 27 28 38 38 39 44 53 60 49 32 30 31 40 36 42 39 43 38 37 36 36 35
31 31 32 32 31 30 30 30 31 30 30 30 30 29 29 30 31 28 23 27 27 27 23 21 29 32 33 31 33 33 28 28 32 30 32 34 37 41 50 50 39 37 41 41 37 36 41 43 42 38 34 35 34 35
30 31 32 32 33 32 32 32 31 32 32 31 31 30 30 30 32 30 28 29 29 28 26 27 29 30 25 22 18 20 23 28 33 42 46 45 47 46 51 44 40 43 46 41 35 33 30 33 32 30 29 30 33 31
28 28 29 30 30 29 30 30 30 29 28 28 27 28 29 31 30 30 31 32 33 35 33 39 37 40 36 39 35 29 30 28 30 38 39 44 50 40 36 42 41 36 31 32 31 28 24 24 25 25 24 29 30 29
25 26 26 26 25 25 25 25 25 24 24 24 25 25 27 26 27 28 21 17 12 9 20 29 26 24 25 28 27 20 18 14 19 26 27 29 42 29 35 35 32 28 24 22 22 17 18 24 27 25 23 21 23 27
18 20 21 21 22 21 20 21 21 20 20 20 22 24 25 23 17 13 11 9 10 9 15 20 15 17 21 21 24 14 20 13 13 17 15 23 33 28 21 31 34 28 19 18 19 17 17 20 26 26 25 24 27 29
18 18 18 18 18 18 17 17 16 14 14 15 16 19 13 11 17 11 10 12 9 12 14 17 18 19 19 21 13 13 12 18 19 12 11 17 15 27 32 31 32 28 21 24 26 28 27 22 15 15 17 20 19 18
22 21 20 19 18 16 16 15 14 15 15 16 16 13 11 12 10 17 24 23 17 19 20 21 25 27 25 20 18 16 17 10 7 8 19 26 30 30 30 25 22 23 26 28 29 27 15 9 7 10 9 12 14 15
26 25 23 23 20 18 17 16 16 19 20 23 13 13 19 19 19 12 6 8 11 16 19 25 26 23 23 18 19 11 9 12 14 20 20 19 14 16 19 18 16 12 13 12 9 5 7 8 9 10 16 18 16 15
31 29 27 24 22 20 18 18 21 23 28 31 27 22 21 18 14 16 19 20 18 22 26 29 30 21 28 17 18 18 17 25 20 20 17 17 13 14 21 29 25 18 25 28 27 20 16 19 18 18 18 22 24 24
29 31 26 26 24 21 21 24 26 31 30 38 42 46 45 42 39 29 18 18 19 27 31 33 25 23 20 23 33 29 31 37 39 31 30 38 38 36 42 40 40 37 37 33 31 28 29 30 31 29 27 25 28 30
32 27 28 27 25 24 27 29 31 36 37 43 46 45 40 41 40 40 37 33 33 35 35 37 42 47 36 41 46 45 45 44 47 40 43 41 44 39 36 38 36 37 36 35 34 33 32 35 31 31 33 35 34 33
36 35 34 31 28 29 32 37 38 41 43 43 44 43 41 40 40 39 38 35 33 34 38 40 37 38 40 40 38 40 41 41 44 49 50 46 43 31 34 38 38 38 37 37 35 33 31 29 30 30 31 33 35 35
35 35 33 32 30 32 34 35 34 35 42 42 40 41 39 39 37 35 33 31 32 37 45 49 51 51 52 51 48 48 45 45 44 46 48 44 34 36 32 31 37 37 37 36 35 33 32 32 31 31 32 34 36 36
30 31 29 28 31 33 37 33 26 30 37 37 33 27 28 31 34 36 37 34 31 36 41 44 43 45 43 43 41 40 42 42 43 42 44 44 43 42 37 32 33 33 34 33 33 33 34 35 35 35 36 35 35 36
29 25 26 26 29 33 38 39 38 41 42 42 40 38 38 37 36 37 33 35 40 46 44 42 41 37 37 38 38 37 40 39 40 42 40 43 40 39 40 36 33 31 31 30 28 31 30 32 32 32 33 35 36 35
24 25 26 28 31 36 35 32 36 38 38 38 39 40 45 47 47 46 46 48 49 48 45 43 41 40 40 39 38 39 38 38 38 38 38 39 39 37 36 38 37 35 34 29 31 31 30 29 31 33 35 34 32 31
27 29 31 31 31 28 34 34 37 38 40 42 44 45 47 49 46 44 48 47 44 39 38 39 39 39 38 38 35 34 30 30 35 35 35 36 39 36 38 40 39 36 35 36 33 33 31 29 30 31 32 35 33 29
29 29 33 32 29 29 34 34 35 37 42 42 39 43 50 47 41 43 53 53 40 37 35 34 32 31 31 26 26 29 31 32 35 36 37 34 35 37 42 40 39 36 37 38 36 33 29 29 31 32 33 33 32 32
27 33 22 24 41 37 34 38 41 43 42 43 48 47 49 34 35 45 51 45 36 31 32 28 21 19 20 20 23 25 25 22 22 24 27 24 28 31 35 36 35 33 33 33 33 35 33 33 35 36 35 34 33 34
35 22 23 32 31 32 32 39 39 35 33 39 44 40 33 28 37 47 39 39 33 30 29 27 26 26 28 29 29 30 29 28 29 31 33 32 27 26 24 28 30 32 33 35 35 36 37 37 38 38 37 37 36 37
26 32 33 35 35 37 36 33 35 39 44 47 43 41 37 40 43 36 36 38 36 29 25 26 28 30 32 34 34 35 36 35 36 37 38 36 32 32 33 32 32 31 32 34 35 36 39 39 39 39 37 37 39 37
41 37 32 32 31 33 37 44 48 44 43 44 43 45 48 45 39 36 34 34 29 28 31 33 34 34 35 34 33 33 36 39 40 42 42 43 43 40 34 35 37 37 37 39 39 39 39 38 38 37 37 37 37 36
45 41 41 42 44 48 47 47 44 43 43 45 46 47 47 51 43 43 42 39 38 39 39 38 37 38 38 40 43 41 37 32 32 37 40 41 40 36 34 35 35 36 38 39 39 39 39 41 40 38 36 35 35 34
41 40 43 45 46 42 43 47 48 47 46 45 43 45 44 44 41 37 39 41 40 38 40 37 35 34 37 39 40 40 41 39 41 40 40 41 41 40 39 38 38 36 36 37 37 37 38 38 36 34 32 32 30 30
38 41 43 46 42 39 39 40 43 43 39 36 36 38 39 37 38 36 31 34 40 39 34 33 32 31 30 31 30 30 32 35 38 40 40 37 33 31 33 35 35 37 36 35 35 36 36 31 26 27 28 25 24 25
41 41 39 38 38 38 39 39 41 42 42 39 39 41 40 37 40 44 39 32 30 28 24 26 31 33 33 32 34 35 36 38 39 39 38 40 39 37 35 35 35 30 28 26 24 24 22 20 21 23 21 20 20 16

GFSWCAN_700_spd_144.txt.gz
Wind_Speed
40 39 36 36 37 38 38 38 37 38 39 35 33 32 33 32 31 29 26 22 22 27 25 13 16 10 13 12 14 17 17 15 13 13 12 12 11 11 13 17 14 12 8 13 15 12 15 6 13 6 11 24 41 43
44 44 42 42 43 42 41 42 41 39 35 36 35 32 32 34 31 28 30 23 23 25 23 22 21 16 18 15 19 20 19 16 10 11 10 10 14 17 21 14 18 20 24 19 17 19 24 30 38 38 44 46 47 48
48 48 49 47 46 45 46 43 41 39 36 37 37 38 36 34 31 28 24 23 20 26 25 14 21 24 21 15 15 15 13 17 20 21 23 23 28 28 25 21 22 29 30 38 38 41 39 39 41 42 39 41 40 35
43 46 46 47 47 46 44 43 44 46 42 40 37 34 33 31 28 27 25 23 22 24 31 21 9 8 12 15 17 19 21 25 27 28 31 31 32 26 30 32 28 27 36 44 46 48 44 35 24 30 39 38 38 39
44 44 44 45 49 51 50 49 46 40 34 32 30 31 30 28 26 26 25 23 23 24 28 26 27 26 26 29 26 23 30 33 33 35 36 36 37 38 45 47 46 35 36 39 43 32 34 38 38 33 36 37 36 41
42 42 42 41 40 40 40 41 35 27 26 27 26 26 25 25 24 24 25 25 24 24 28 32 25 17 24 28 31 28 21 24 27 31 33 36 28 28 27 36 34 36 38 33 38 35 39 41 40 38 37 36 40 45
39 41 41 39 38 39 37 25 22 22 23 23 24 23 24 24 23 22 23 24 20 19 22 22 18 9 8 10 14 13 12 22 26 30 36 36 34 33 44 52 39 37 34 28 30 36 44 38 40 35 33 36 36 36
28 30 19 19 15 14 15 24 22 22 21 21 21 23 23 24 24 24 24 25 25 23 24 15 18 11 10 14 19 26 26 25 30 32 38 36 34 31 37 40 39 35 37 37 33 28 32 34 30 29 28 29 30 28
12 13 14 17 17 16 15 16 18 19 21 23 23 25 26 27 26 26 26 27 27 25 21 24 25 23 17 20 22 28 28 28 30 37 38 34 34 29 37 38 33 32 34 31 23 21 24 30 30 27 24 22 23 25
15 15 14 15 14 14 15 19 18 21 22 22 21 22 24 24 24 24 24 25 28 29 31 37 34 35 29 27 24 21 18 17 19 25 23 32 40 27 32 31 30 30 29 29 18 22 23 24 27 28 27 27 28 31
14 17 19 20 20 21 21 21 21 20 19 19 19 21 22 20 17 17 13 12 11 11 19 26 26 28 27 29 26 15 11 8 9 14 15 12 23 18 21 25 29 32 25 20 25 27 27 29 30 31 30 31 30 31
7 7 9 12 13 14 16 17 16 16 15 15 16 16 16 15 10 10 9 8 12 11 12 13 13 13 15 13 12 11 15 8 9 9 8 12 20 18 23 26 29 23 23 24 25 26 26 27 33 36 35 36 26 31
9 8 6 6 6 7 8 8 6 7 8 9 10 10 6 9 11 8 9 9 8 9 9 9 8 8 7 8 10 10 9 13 15 12 20 23 25 24 29 22 12 18 21 23 20 18 21 24 25 26 30 33 34 27
15 13 11 9 8 8 8 8 7 6 7 7 6 6 6 6 6 7 12 11 12 11 12 13 13 9 13 13 13 9 14 17 17 22 30 31 32 25 16 18 16 19 29 26 20 22 23 24 23 23 26 30 30 32
19 19 17 15 13 12 11 10 10 11 11 10 6 7 7 3 9 12 14 15 17 19 19 20 20 18 15 12 9 9 7 11 12 18 18 10 10 11 14 20 25 31 35 34 30 31 28 24 24 23 21 22 25 26
22 23 22 19 17 14 12 14 16 17 19 19 17 14 15 15 15 17 19 20 19 19 21 21 18 11 13 12 18 21 21 27 24 18 18 25 28 31 31 34 36 35 39 36 35 34 33 28 28 28 25 26 27 29
23 24 20 19 19 17 18 18 20 24 20 22 31 30 28 27 25 23 23 23 22 22 23 19 13 15 17 19 25 19 29 32 32 36 43 43 41 49 49 47 45 45 43 40 38 36 34 35 33 33 31 29 31 32
25 24 20 18 20 20 23 24 27 31 37 37 38 34 32 33 32 31 30 31 32 35 37 37 33 29 34 37 42 45 49 51 51 52 52 54 51 49 46 44 41 42 41 42 40 39 37 36 38 35 35 34 35 33
29 27 25 23 25 27 29 33 36 38 39 39 39 36 37 38 37 36 36 32 34 33 34 35 28 34 38 42 45 46 46 44 43 44 41 40 44 44 40 42 40 39 41 41 40 40 40 40 40 38 37 36 34 32
32 31 30 28 28 28 29 30 35 41 45 44 44 41 39 38 33 32 30 31 34 35 37 40 44 44 43 42 41 43 42 41 41 43 45 43 40 37 36 36 38 38 39 39 37 37 38 37 39 43 40 36 31 25
24 26 26 25 29 31 35 36 36 32 31 35 28 32 34 31 30 27 28 29 32 36 38 38 39 38 38 40 40 40 43 41 42 44 47 48 42 42 41 40 40 40 41 40 39 37 36 36 36 37 38 32 30 25
27 27 27 27 28 32 36 38 35 36 39 27 30 28 21 28 34 33 31 36 39 38 40 40 40 37 34 35 35 35 37 38 38 39 41 43 45 43 38 39 38 37 39 38 36 36 37 36 34 32 33 30 28 26
29 27 28 30 31 34 36 36 37 38 39 29 25 25 29 31 35 35 32 35 37 38 34 32 29 32 36 30 33 38 39 36 35 37 40 42 43 44 43 38 36 38 37 35 36 38 37 35 31 29 29 29 28 27
26 26 27 29 29 25 21 23 26 28 32 28 32 31 35 35 36 35 40 37 37 32 31 34 31 25 26 29 32 33 30 26 30 33 36 36 38 37 35 36 34 33 32 31 28 30 32 32 28 27 28 29 29 29
27 26 30 25 30 30 31 33 31 31 33 34 35 37 38 33 32 35 40 36 29 32 25 27 22 23 26 29 32 33 28 23 23 28 25 24 25 26 29 29 30 31 30 31 27 27 30 29 26 26 27 27 28 28
24 27 20 16 26 30 29 30 35 35 33 34 36 35 34 32 32 39 41 33 31 28 31 33 34 35 36 35 33 34 35 30 28 35 39 33 30 31 33 34 35 36 33 33 32 29 27 27 25 24 23 25 27 28
32 28 21 24 27 27 28 31 33 31 30 34 35 29 25 29 35 45 34 31 33 38 41 42 43 43 41 40 41 40 39 38 36 36 38 37 38 39 40 40 38 33 30 30 30 31 30 28 26 23 24 24 25 27
27 24 28 31 32 33 34 35 37 40 40 39 36 36 36 41 47 40 41 44 45 47 50 49 46 41 40 37 37 39 38 37 38 38 39 39 39 39 39 37 37 34 33 33 32 32 31 30 31 31 30 32 31 30
39 38 36 35 35 36 39 44 44 41 41 40 39 42 45 46 47 47 43 45 46 45 45 43 40 37 39 39 35 29 28 29 33 36 38 39 36 33 35 39 39 37 36 38 34 30 29 29 30 30 31 31 29 30
41 38 38 38 38 42 44 44 46 43 35 40 46 50 49 47 41 40 43 44 47 48 45 41 40 39 40 39 37 35 35 36 37 40 40 38 35 31 29 29 30 31 33 35 35 34 34 34 33 33 32 31 32 30
31 36 39 40 40 32 35 39 39 39 39 40 40 45 46 44 44 39 40 39 38 28 27 28 29 29 29 31 33 37 39 36 34 35 38 39 37 36 35 35 36 30 26 25 25 26 27 27 26 25 26 26 27 30
31 27 23 27 29 29 30 32 35 38 38 40 41 40 35 34 34 27 19 18 19 26 29 31 34 35 34 35 36 36 37 37 37 39 40 40 40 39 37 32 30 29 28 28 25 24 21 20 19 20 24 26 28 27
34 32 32 33 34 35 33 35 37 34 33 34 33 29 24 21 23 25 23 22 24 25 27 28 29 31 34 36 36 36 36 35 33 33 33 34 34 33 33 32 30 29 31 30 27 24 22 21 20 22 23 21 18 18

GFSWCAN_700_spd_150.txt.gz
Wind_Speed
43 44 43 42 41 39 37 37 36 34 35 34 32 30 30 28 26 27 24 23 25 26 23 24 24 24 25 23 22 22 19 17 15 16 11 12 12 11 13 15 9 10 9 12 17 11 13 7 4 5 6 16 28 38
44 42 43 43 42 40 40 40 38 36 35 35 36 35 35 34 32 31 29 28 27 26 24 25 23 22 25 27 28 29 25 17 9 9 11 10 13 12 12 8 12 14 17 10 14 9 10 9 15 25 30 35 38 43
41 43 42 42 42 41 39 38 39 40 39 39 39 39 36 35 32 31 29 27 29 33 30 26 24 21 26 26 30 27 25 26 26 26 25 23 22 21 21 20 21 24 23 28 28 30 30 32 32 32 35 35 35 38
38 40 39 40 43 40 40 38 35 40 40 40 40 39 36 33 29 29 29 28 30 31 33 30 30 30 27 25 26 28 28 29 27 28 26 30 33 28 33 33 33 29 29 33 37 36 34 34 28 29 32 35 40 42
32 33 30 31 34 34 33 34 37 36 34 33 32 30 30 30 30 32 33 30 24 25 30 29 21 16 22 25 24 24 26 26 29 31 34 34 35 34 41 43 50 40 37 38 43 25 27 31 32 33 36 35 35 38
33 32 30 35 39 39 37 35 34 32 30 29 28 26 26 26 27 28 28 29 29 29 38 41 30 26 21 23 24 27 29 30 32 34 41 40 39 36 31 37 36 29 19 21 29 30 34 35 35 32 33 36 33 30
30 32 34 34 34 34 33 33 31 31 31 31 31 29 28 26 23 23 25 23 20 19 23 25 26 19 13 17 20 25 30 31 35 39 46 49 47 34 38 47 42 38 36 36 35 35 35 30 30 32 31 29 27 26
23 25 27 30 31 33 34 33 32 31 29 27 25 23 22 21 22 22 22 23 20 18 19 16 21 25 20 21 24 24 27 27 32 36 41 42 33 29 37 47 38 33 33 29 24 24 28 31 28 29 26 25 24 24
20 19 18 20 23 24 24 24 24 24 22 22 23 23 21 21 21 18 17 18 19 22 24 25 29 27 15 16 18 21 25 27 27 29 30 30 35 35 42 31 30 40 42 37 34 27 24 25 24 23 25 26 27 26
22 19 16 15 15 15 15 15 15 14 14 15 15 16 18 18 19 18 19 20 23 29 36 39 37 36 31 30 26 25 21 19 20 30 32 36 49 51 46 40 35 31 28 24 24 22 23 28 28 25 25 26 26 26
23 21 19 17 16 15 15 15 16 16 16 17 18 18 18 16 15 14 11 9 9 14 21 29 32 35 35 32 27 15 14 10 14 19 21 22 34 36 31 27 20 20 23 25 26 26 29 32 23 20 17 16 19 22
23 22 22 22 20 19 18 17 18 17 17 16 16 15 14 12 8 8 7 8 12 11 11 13 12 13 14 14 14 9 16 10 10 10 10 13 26 23 21 17 17 20 26 29 28 29 26 18 15 17 17 18 20 21
23 20 20 18 17 17 16 16 17 16 15 14 12 11 7 10 11 7 7 7 6 9 12 13 11 10 7 6 9 10 8 11 11 9 15 20 24 25 23 23 23 27 28 29 31 29 21 17 21 25 27 27 30 29
18 18 16 14 12 13 12 11 9 11 12 11 8 8 8 6 6 4 2 3 6 9 12 14 12 7 8 9 10 8 11 11 9 8 8 15 17 18 23 28 29 25 24 24 20 28 32 34 35 34 34 35 36 37
20 18 15 14 13 13 13 12 15 12 11 9 6 5 8 6 8 1 3 5 8 11 14 16 16 17 20 17 15 10 8 7 12 18 20 21 19 18 13 21 28 27 33 41 48 39 38 40 40 45 46 45 47 46
20 20 19 17 16 13 13 13 14 14 15 15 13 7 5 6 7 12 11 12 14 16 20 21 19 12 17 11 15 14 11 17 19 18 21 26 30 35 40 42 42 45 48 51 53 48 48 49 49 46 48 49 43 38
24 23 18 18 16 16 17 18 18 18 15 20 24 18 16 15 17 20 22 22 22 23 25 24 23 19 20 18 28 27 25 30 35 38 43 48 53 52 46 45 48 51 52 52 53 53 49 46 45 46 44 39 37 36
27 22 18 18 20 20 22 23 24 23 29 28 24 18 19 21 21 24 25 25 27 28 28 27 26 27 25 27 37 44 44 45 43 42 41 40 40 42 42 43 43 43 43 44 46 46 45 46 46 44 42 39 39 38
27 24 21 21 22 24 26 28 30 34 33 30 28 26 27 27 25 25 26 28 29 32 35 36 27 33 38 44 46 45 44 43 44 42 42 40 40 41 41 42 44 45 45 46 47 47 46 43 43 43 41 38 40 38
29 28 26 23 26 30 31 31 30 35 38 36 33 32 33 32 28 29 30 35 35 37 34 38 42 45 46 45 42 43 43 44 44 42 42 44 43 41 42 43 45 46 47 47 47 47 48 47 41 39 37 36 37 35
29 27 27 30 33 38 37 30 31 32 37 38 33 30 30 29 32 37 32 28 36 41 42 39 42 37 35 40 41 42 44 39 38 41 45 45 44 44 45 42 43 41 40 41 41 40 38 39 36 35 35 32 32 32
33 32 34 36 42 47 42 30 28 30 25 33 28 29 28 31 35 35 39 38 37 36 39 37 36 38 41 41 40 36 34 35 39 43 43 43 42 39 39 40 39 39 36 35 34 35 34 29 29 29 28 27 25 25
25 29 39 41 44 32 17 16 23 24 26 24 27 30 35 39 41 41 36 29 34 33 28 32 34 34 37 34 32 31 31 29 30 30 32 34 36 40 41 42 42 41 40 36 34 34 33 27 24 23 22 22 24 27
19 18 21 19 23 19 22 23 27 27 30 32 33 36 36 36 34 33 38 40 36 31 36 31 27 26 23 23 26 27 25 27 30 36 37 38 41 43 43 43 43 43 44 41 37 34 31 28 26 24 24 25 28 30
17 16 14 16 16 19 26 29 31 32 35 35 35 34 33 34 36 40 45 42 39 34 27 19 19 25 28 26 26 29 32 35 38 41 42 43 44 43 43 42 41 42 43 42 39 35 29 27 27 27 28 29 29 30
18 12 19 22 22 24 26 27 30 31 29 31 33 33 33 37 41 43 38 34 33 31 25 24 26 34 36 33 36 37 37 37 40 43 45 44 46 47 46 43 41 37 40 39 37 33 31 29 27 28 28 28 29 29
23 19 19 24 28 28 28 28 29 31 27 31 36 36 34 38 42 44 39 33 36 37 38 36 36 39 40 39 38 40 42 43 46 49 50 49 47 46 47 47 45 43 44 39 38 38 37 35 34 32 32 30 30 30
25 29 27 23 26 28 31 32 32 34 36 37 39 41 43 45 49 42 41 40 40 39 38 37 36 38 40 41 42 44 45 44 43 42 40 40 37 36 35 37 39 40 38 37 37 37 35 33 31 30 29 30 31 30
34 32 29 30 32 33 36 36 37 34 31 37 41 43 43 43 44 43 38 36 37 38 40 41 39 37 38 39 39 38 37 36 38 42 44 45 43 38 35 36 35 33 32 32 30 30 30 30 27 23 22 25 25 25
31 31 34 35 33 35 29 31 25 23 27 31 35 37 38 37 34 34 37 38 37 37 35 32 31 31 34 35 37 38 36 36 37 41 47 48 47 43 38 34 34 35 35 34 28 22 21 20 19 21 24 23 23 23
31 31 32 32 36 33 30 29 28 27 28 29 28 32 37 35 34 29 28 20 22 20 22 26 27 26 29 31 34 37 38 37 42 42 43 42 41 40 38 34 33 32 30 29 28 24 21 21 22 22 23 21 21 22
32 33 33 34 31 29 28 26 26 26 25 26 27 28 28 27 23 16 11 16 20 23 26 29 29 27 28 32 36 39 41 41 40 39 38 40 39 34 31 28 28 28 28 26 25 26 25 24 21 19 17 17 18 20
23 21 22 25 25 24 23 23 26 26 26 26 23 21 11 15 16 16 19 19 21 23 25 27 28 31 35 36 37 38 38 36 34 35 35 34 31 28 24 22 20 21 23 24 22 21 20 19 19 18 18 19 20 18

GFSWCAN_700_spd_153.txt.gz
Wind_Speed
42 39 37 37 37 41 38 34 32 31 30 30 30 30 29 27 27 27 26 27 28 29 25 26 26 26 26 25 25 22 21 23 19 16 12 11 11 10 12 14 11 9 9 12 19 11 14 8 4 7 10 12 18 24
45 46 42 40 39 36 37 35 34 31 32 33 33 32 31 33 32 32 31 32 33 33 29 29 28 29 29 25 27 29 26 23 13 11 13 11 14 12 14 10 15 13 17 12 13 5 9 10 11 15 21 28 31 37
39 39 40 39 37 34 37 35 35 30 32 32 35 33 35 35 36 38 35 33 34 37 37 30 27 29 30 31 32 29 28 25 26 27 23 19 23 21 22 24 25 25 23 23 25 25 26 29 29 29 32 37 39 42
37 36 34 34 35 34 32 35 35 36 29 30 36 36 33 32 35 38 38 34 32 33 37 35 29 31 31 28 25 27 28 31 31 29 31 32 29 28 32 33 35 32 32 32 36 36 35 36 39 40 42 43 42 40
35 33 32 31 32 31 35 37 36 38 41 39 32 34 32 27 26 28 28 28 26 25 27 29 29 22 18 25 25 29 27 24 25 31 33 36 38 36 42 43 47 40 37 38 43 33 34 35 34 34 36 39 39 41
35 33 31 30 30 30 31 33 34 36 33 33 34 32 28 25 24 24 25 27 24 25 30 33 30 27 24 23 24 26 24 26 31 32 37 35 38 38 34 44 46 43 36 19 21 27 31 33 34 36 37 35 35 34
31 31 29 28 28 29 30 33 37 39 39 36 31 28 27 25 24 24 26 25 19 17 21 21 22 18 7 11 13 14 19 29 32 36 41 40 45 40 45 52 46 40 39 30 33 27 30 32 33 30 29 33 33 30
26 24 24 25 28 30 31 32 33 33 32 31 30 28 25 24 22 20 21 23 21 21 22 15 17 21 20 21 23 25 25 25 28 27 35 37 39 44 52 54 49 36 23 28 28 30 33 30 32 35 28 26 26 26
24 22 22 22 23 24 25 25 26 26 27 26 25 24 21 19 18 15 17 18 18 21 16 17 22 22 14 12 14 19 24 28 27 30 31 28 35 35 36 25 24 30 37 37 34 32 30 34 30 25 25 27 29 28
25 22 20 20 21 21 20 20 20 19 18 17 17 16 16 19 19 19 20 21 22 26 31 37 37 36 30 31 30 28 21 18 19 19 18 27 37 40 38 39 37 34 30 27 27 27 26 23 23 23 23 20 21 20
24 25 23 21 19 18 18 18 17 15 15 15 14 13 14 12 10 12 10 10 10 11 17 24 26 29 27 29 30 20 12 11 14 16 17 15 27 29 22 20 20 21 22 25 25 22 24 23 20 18 15 15 17 17
22 24 25 24 22 21 20 18 17 15 16 15 13 13 12 10 7 9 8 9 10 8 9 9 9 10 12 11 9 7 13 8 8 6 8 10 20 17 20 19 18 21 22 20 22 23 22 22 19 19 18 18 19 22
22 21 22 21 22 21 19 19 17 17 16 15 13 11 6 10 13 9 10 7 6 6 5 7 8 9 7 6 7 8 7 9 9 8 10 17 21 20 19 20 23 24 24 24 21 19 21 24 23 26 28 28 33 36
24 26 26 23 21 16 13 13 13 14 14 13 9 9 9 7 8 11 9 5 5 4 4 6 7 7 8 10 8 7 9 9 8 8 10 11 15 17 16 13 18 22 25 26 28 28 30 31 36 42 46 48 49 47
26 26 24 21 14 15 16 14 12 9 9 10 8 7 11 9 9 10 6 4 2 3 6 10 13 14 13 10 9 9 7 9 13 17 18 14 16 17 18 25 32 39 45 45 50 50 51 52 52 51 49 51 48 41
24 25 25 22 20 18 18 17 17 17 15 13 10 7 7 9 12 8 5 4 7 10 14 18 19 11 12 10 13 12 13 18 21 23 27 34 39 41 46 46 44 44 43 40 41 43 44 45 45 45 45 44 40 38
31 27 23 22 21 19 18 19 20 19 13 16 17 15 14 14 12 10 12 13 17 20 19 18 10 12 13 15 25 27 33 37 36 35 36 39 42 42 45 44 41 41 43 44 44 43 43 43 44 44 44 42 42 41
32 25 22 20 20 20 21 21 22 23 27 27 27 22 20 19 19 16 15 16 18 19 19 21 22 24 21 29 38 40 43 46 45 45 43 38 36 42 44 44 45 45 46 45 44 44 44 44 45 47 47 46 42 40
31 26 22 21 22 21 22 23 26 30 29 28 26 24 22 21 21 20 22 22 23 24 24 29 21 33 41 46 46 45 42 40 37 35 37 38 42 42 43 43 44 43 42 40 41 41 42 40 40 40 39 35 36 37
32 26 24 24 23 23 28 28 31 32 32 32 28 26 27 27 24 27 28 28 24 25 35 40 44 49 43 45 42 41 39 33 35 40 42 43 44 44 45 46 44 42 42 40 37 36 36 33 31 30 32 34 34 32
34 30 26 26 26 26 29 31 30 30 34 35 30 30 33 33 32 31 30 30 30 37 40 45 49 50 41 38 35 34 34 35 36 39 42 42 43 40 42 40 35 34 34 36 38 36 33 32 31 29 29 28 28 28
35 31 28 25 27 33 36 37 35 36 39 42 40 38 36 36 36 35 31 33 39 43 37 28 29 33 29 30 33 35 38 39 40 38 37 38 39 39 36 35 36 38 40 41 40 40 37 34 31 30 28 25 23 20
30 28 28 30 30 34 23 24 31 28 24 26 29 30 32 29 29 29 36 42 43 31 27 31 29 28 33 30 25 26 25 29 34 35 35 34 34 36 39 42 43 45 47 45 42 41 41 36 33 32 29 28 26 22
22 24 30 25 33 22 22 23 24 26 21 17 19 25 31 32 36 35 41 39 32 28 29 27 26 27 25 22 24 26 27 27 30 31 32 36 42 45 46 50 49 47 46 44 42 40 36 34 32 31 29 26 27 27
20 16 21 17 17 16 16 19 20 23 28 30 31 30 30 29 31 38 38 32 29 29 25 19 20 22 25 27 29 32 31 32 35 39 42 45 48 49 49 47 46 47 48 49 46 39 34 31 30 28 27 27 27 28
14 9 12 13 14 19 21 23 28 27 23 22 25 24 25 32 33 39 36 34 29 24 23 26 29 32 35 35 38 39 39 37 39 43 45 45 46 49 50 50 47 40 35 37 36 35 33 32 31 26 26 27 28 29
20 18 15 20 22 22 22 21 21 24 27 29 29 28 28 31 34 38 33 30 30 30 31 33 36 39 40 41 41 41 41 41 43 46 46 45 43 41 39 39 39 39 35 35 34 33 31 29 28 25 23 24 25 27
17 19 19 14 16 16 20 21 25 29 30 29 29 31 33 36 43 36 35 33 33 34 35 36 38 40 41 42 42 42 40 40 39 38 38 38 37 37 37 38 40 41 40 38 36 34 30 27 27 28 28 26 24 22
18 16 14 17 20 25 28 28 25 19 21 25 29 33 35 35 34 33 33 34 33 37 38 35 34 32 28 27 29 31 32 33 36 39 41 42 41 39 43 44 43 40 36 35 35 35 33 31 28 26 25 23 20 18
20 20 23 26 29 31 24 27 26 24 29 31 32 34 35 33 32 32 34 34 33 33 31 31 27 26 28 30 34 33 30 31 34 39 44 47 47 45 43 42 41 38 37 32 32 33 31 28 24 20 17 15 16 18
21 23 26 26 30 26 23 24 24 25 26 28 30 34 35 30 27 30 25 22 23 23 24 25 26 28 32 34 35 36 37 36 37 40 42 43 41 39 38 38 37 34 31 26 25 28 28 24 21 19 18 17 19 20
28 28 27 26 23 22 21 22 25 26 24 24 25 25 23 24 24 18 13 15 17 19 23 25 26 27 29 32 36 38 39 41 41 39 36 36 37 36 33 30 26 23 21 21 19 21 22 20 19 21 19 18 18 17
21 18 18 20 21 19 14 19 25 29 28 25 24 21 16 13 16 13 18 19 20 25 25 24 27 30 33 34 35 38 38 36 34 34 33 32 30 27 25 24 21 17 15 15 14 16 17 16 15 16 17 17 17 16

GFSWCAN_700_spd_156.txt.gz
Wind_Speed
44 42 41 40 38 36 35 32 31 32 32 32 31 30 28 28 27 27 25 25 28 30 28 28 28 25 25 27 26 24 23 25 21 19 16 18 15 15 15 18 14 15 12 18 21 13 16 13 13 13 13 17 19 22
42 41 43 44 43 41 40 39 38 37 35 33 32 31 30 29 30 32 30 30 32 33 30 31 31 30 30 31 31 33 30 27 16 14 14 12 14 14 16 10 19 17 21 10 16 7 9 8 13 14 17 21 24 28
34 35 36 37 39 38 37 35 34 31 32 35 32 29 29 29 29 30 31 34 37 38 37 33 32 31 34 32 33 33 34 32 33 33 30 27 26 23 21 21 25 26 17 23 21 18 19 22 21 25 30 32 35 38
33 34 34 33 33 33 33 34 30 33 37 33 32 34 29 28 31 31 28 29 34 36 39 39 33 34 33 32 33 30 24 24 28 27 30 33 33 27 33 34 35 29 28 25 27 28 29 30 33 39 43 44 45 45
39 36 34 33 32 31 31 33 29 34 29 35 32 40 33 37 32 30 31 29 27 26 29 29 28 22 22 19 17 22 27 27 25 29 32 33 37 36 42 43 45 43 43 40 46 38 40 46 30 29 29 33 35 37
37 37 34 32 31 31 31 31 36 38 38 36 37 42 40 34 28 31 31 30 26 26 28 33 28 28 21 24 25 31 28 27 29 31 31 33 37 37 32 41 43 31 29 36 36 28 30 38 33 32 34 37 38 37
33 33 34 33 31 30 32 31 33 34 36 36 33 32 34 33 28 29 30 27 22 19 22 25 24 17 12 15 21 20 19 19 24 31 37 34 35 31 39 44 43 47 43 34 39 35 25 17 27 35 36 37 34 34
28 28 28 28 30 28 27 29 31 34 36 37 35 33 31 29 29 29 27 28 24 22 21 15 17 19 16 15 16 19 23 25 29 27 30 27 29 29 33 39 36 37 34 25 22 26 30 28 33 36 35 33 34 29
24 23 24 25 25 25 27 28 29 30 31 32 31 29 27 27 25 23 22 23 22 22 14 19 22 18 16 15 12 15 23 27 29 32 32 28 33 27 29 35 34 30 30 29 30 33 34 31 28 29 32 34 28 25
23 24 23 23 23 24 24 25 25 25 24 23 23 22 22 22 20 18 17 18 20 22 26 31 30 29 26 28 27 23 19 17 16 18 15 21 32 29 23 21 22 23 26 30 32 27 26 27 28 24 23 24 26 25
23 24 23 22 21 21 20 19 19 18 17 16 15 15 16 11 10 12 12 12 11 13 18 25 23 26 24 25 22 10 7 7 7 8 10 10 22 18 17 17 17 18 19 21 22 21 22 20 20 22 22 24 23 24
23 23 19 19 20 19 18 17 17 16 16 15 15 15 14 13 9 10 10 10 11 11 10 7 4 4 7 8 6 6 9 6 6 5 6 7 18 18 16 15 19 21 20 23 26 26 21 17 16 19 22 22 25 27
25 20 20 24 21 20 20 17 17 16 15 15 14 12 8 10 15 9 11 9 9 10 7 4 3 3 3 4 5 6 5 7 10 9 12 21 23 23 22 20 19 19 23 26 24 19 19 25 31 33 33 33 36 38
25 25 23 19 17 18 16 17 20 18 17 16 13 12 9 8 8 20 16 12 12 8 6 3 2 3 4 6 6 5 7 8 8 7 12 17 20 20 16 16 19 22 27 34 39 42 43 47 45 44 42 41 37 40
28 26 27 22 24 22 18 16 15 14 15 15 10 9 14 14 11 12 14 11 10 7 6 5 8 10 10 7 6 7 6 8 12 17 19 27 24 24 30 38 35 40 40 42 44 47 47 45 42 41 39 39 38 38
28 25 29 27 23 18 18 22 19 16 15 13 10 8 9 14 13 16 13 11 11 10 9 9 12 12 9 6 11 14 16 25 32 36 35 33 36 39 38 37 41 37 39 42 44 44 44 45 45 45 44 41 40 41
32 32 27 24 24 24 23 24 22 20 11 12 11 11 7 9 12 13 11 11 11 11 10 11 8 6 10 11 20 23 30 33 38 39 36 37 42 41 38 40 39 38 41 44 43 42 43 42 39 38 39 39 41 42
35 30 26 26 27 24 24 25 25 22 27 23 16 14 16 18 19 19 17 14 14 15 16 18 22 22 20 28 39 41 38 40 36 38 38 36 38 39 36 37 38 40 42 43 42 40 35 34 35 33 35 33 35 38
33 28 29 29 28 30 29 27 28 27 26 25 22 20 19 20 20 21 20 20 19 19 22 28 23 36 40 42 43 44 42 42 41 38 38 38 36 35 37 38 40 42 41 37 35 34 33 31 30 32 31 31 33 36
30 29 30 28 26 27 27 25 25 27 28 27 23 21 20 18 17 18 20 22 24 26 30 38 42 41 40 43 45 45 36 33 33 35 38 38 38 40 42 43 42 38 35 34 31 30 31 33 33 33 33 32 32 33
33 32 29 28 27 27 26 24 21 22 25 27 26 26 27 25 26 27 27 27 31 38 43 43 42 44 45 44 36 35 38 35 34 36 42 45 44 43 41 37 37 35 34 32 33 35 37 40 41 38 37 35 33 33
37 36 32 29 28 25 28 29 27 28 29 31 32 33 35 37 37 39 39 43 45 46 43 44 45 48 45 37 37 36 36 36 39 41 39 37 39 38 36 36 35 36 38 40 42 44 46 47 47 43 40 33 33 32
36 36 36 31 25 26 17 22 26 30 35 37 38 39 39 40 40 39 39 42 44 42 42 44 42 34 33 34 34 35 34 34 33 29 29 32 36 37 38 40 39 42 45 47 49 52 51 46 45 43 41 36 34 34
37 35 34 23 31 18 17 18 22 27 28 30 31 32 30 27 28 33 41 41 43 36 28 26 24 27 29 31 32 29 27 26 32 35 35 39 43 44 43 46 47 49 51 53 52 51 49 46 41 38 35 31 30 32
30 21 16 17 20 22 27 27 26 26 28 26 21 26 31 32 31 36 42 43 36 32 22 19 21 22 27 31 34 34 33 35 38 42 44 44 46 46 47 48 50 49 48 48 44 39 37 36 34 30 31 32 31 29
15 10 9 10 13 19 20 17 18 20 21 23 23 23 26 29 30 37 42 30 19 16 18 23 27 30 34 36 39 41 41 41 43 45 43 41 43 45 46 47 45 41 33 34 37 39 39 37 37 34 30 29 29 27
13 9 12 15 17 20 20 20 18 17 17 21 22 22 22 21 24 32 22 26 29 30 29 30 32 34 37 38 39 41 40 39 38 38 38 37 37 37 38 39 41 40 38 40 39 39 42 44 42 36 29 25 24 24
17 21 21 18 17 18 19 18 17 19 22 23 21 22 16 20 34 32 33 31 33 33 33 32 33 35 36 36 36 31 27 29 32 37 39 37 34 34 35 38 40 42 44 45 45 44 41 37 36 33 29 24 22 23
13 10 11 10 13 16 17 19 22 21 20 24 28 32 36 37 36 35 35 35 31 33 35 34 31 30 28 27 27 29 31 35 40 40 39 41 41 39 41 42 43 43 42 41 39 37 34 31 31 30 27 24 21 22
10 10 13 15 19 23 21 23 23 22 26 28 30 35 38 35 34 33 30 26 28 29 26 25 26 27 29 32 33 33 32 34 38 42 45 45 45 44 43 40 38 37 35 34 33 31 28 26 26 27 24 18 16 15
10 14 19 21 24 21 20 22 23 24 26 28 28 31 33 33 30 25 20 20 22 20 22 23 27 29 28 29 32 35 35 33 36 39 40 40 39 38 36 34 31 28 25 25 24 22 18 17 17 18 16 14 14 15
20 21 22 22 20 18 18 20 20 22 23 23 23 24 24 25 24 19 14 15 17 21 22 25 27 27 29 31 33 35 40 39 36 35 36 35 34 31 27 24 22 21 19 19 18 14 14 11 10 12 12 14 15 14
15 15 17 18 18 16 16 20 24 28 29 27 25 17 10 8 10 11 11 14 18 20 23 25 27 29 31 32 34 38 34 33 32 32 33 30 30 30 28 24 20 18 15 12 10 10 7 6 8 8 9 12 13 12

GFSWCAN_700_spd_159.txt.gz
Wind_Speed
41 37 36 38 35 34 35 34 32 30 28 29 30 30 32 32 29 28 27 26 25 26 24 26 27 26 26 24 24 25 24 25 23 18 17 16 13 13 15 17 12 13 11 15 20 12 16 13 15 18 16 15 16 17
37 40 41 39 37 39 38 38 38 37 36 34 34 33 32 34 32 30 28 28 30 31 30 30 30 30 31 31 30 30 28 28 18 18 14 12 14 13 13 11 17 18 21 14 15 11 12 11 14 14 16 18 19 20
27 29 32 35 35 36 37 38 38 37 38 38 36 34 30 34 28 31 30 31 32 35 36 33 28 30 29 28 32 34 31 30 33 31 31 30 29 26 25 25 25 28 22 22 25 26 25 26 24 25 27 29 31 32
30 30 29 28 29 30 30 31 32 33 34 35 29 33 35 29 29 29 31 29 30 31 37 38 30 32 32 33 33 33 34 33 32 29 29 32 35 28 30 31 35 30 33 34 38 38 35 33 30 32 35 41 44 48
37 33 33 33 32 31 29 29 28 28 29 26 30 36 39 30 31 32 35 31 29 27 34 42 37 31 31 24 19 24 28 27 27 27 31 34 36 37 42 43 49 43 38 39 42 37 41 47 42 37 38 37 33 34
38 39 38 37 35 31 32 30 27 26 28 30 30 31 35 35 33 34 36 34 30 29 29 36 32 28 23 24 26 31 35 38 39 34 35 37 39 35 29 38 40 38 36 30 31 27 36 37 31 30 34 36 36 36
32 32 33 33 33 33 33 32 30 28 29 30 36 37 37 38 35 34 35 32 28 24 25 28 26 21 12 18 28 35 35 32 33 34 38 37 35 31 33 43 37 37 39 40 36 30 34 29 31 29 27 27 32 39
27 28 28 28 29 30 30 30 31 32 34 35 37 37 35 34 32 32 30 30 27 25 25 20 24 25 21 17 17 19 20 20 25 28 29 29 28 26 29 37 34 30 29 31 27 25 30 30 28 29 31 33 35 38
24 24 23 24 25 26 27 26 27 28 27 27 29 32 33 31 31 29 28 28 28 25 17 26 29 23 19 19 20 23 26 24 26 31 32 30 34 22 22 27 28 26 28 27 31 33 32 35 33 30 27 32 30 28
23 22 22 22 22 22 23 23 25 26 27 26 26 25 25 25 23 21 18 20 24 27 30 34 33 30 26 23 18 20 27 25 19 22 14 17 27 24 23 24 24 24 23 23 24 25 25 23 23 26 25 20 18 22
23 22 21 20 21 20 21 20 21 20 20 19 18 18 17 14 13 15 15 13 12 13 21 29 30 33 31 30 27 14 7 7 6 8 11 8 16 16 19 20 21 21 20 20 21 20 22 25 27 27 23 20 23 26
27 23 19 18 19 19 19 17 16 15 15 15 14 13 12 11 9 9 10 12 12 12 14 12 11 11 9 8 7 7 9 6 6 7 6 7 22 20 19 20 20 20 22 22 22 21 23 24 23 26 24 26 27 29
30 26 22 21 17 17 17 16 14 15 14 15 15 14 9 11 16 11 13 11 14 15 12 10 10 8 7 7 6 7 6 8 8 6 10 20 21 19 20 24 23 17 21 27 29 30 31 33 35 38 40 41 37 35
30 31 25 22 17 21 21 17 16 18 17 16 11 10 10 10 9 21 23 17 18 11 11 10 8 8 6 5 6 5 7 8 7 11 18 18 21 25 30 30 29 29 34 34 35 37 37 35 37 39 40 38 38 39
32 28 26 24 22 19 18 17 18 19 19 16 10 10 16 17 19 15 17 19 15 14 12 11 9 8 7 6 6 7 5 6 9 17 22 26 30 36 34 34 36 37 42 40 39 38 38 38 40 43 42 43 42 41
32 31 31 26 25 24 25 23 21 18 20 18 15 9 10 15 21 18 14 16 16 15 14 13 11 7 10 6 10 10 8 18 24 27 29 30 33 35 37 38 40 43 47 47 44 40 38 39 40 41 43 42 40 38
29 40 28 28 26 24 24 22 21 21 19 20 15 15 17 10 12 13 15 16 17 17 15 12 11 9 7 10 21 20 26 24 28 32 35 41 41 38 40 42 43 47 48 48 44 39 40 39 40 40 39 35 33 33
32 38 29 29 28 30 29 25 25 22 26 28 20 13 12 10 7 6 10 12 15 17 18 21 21 21 22 29 39 39 40 38 37 41 42 45 45 44 41 38 38 40 40 39 39 40 38 36 35 34 32 29 31 34
31 40 24 35 34 31 28 28 30 29 24 27 24 19 19 19 16 16 17 16 17 20 24 28 21 30 42 43 40 39 37 38 41 42 41 41 39 38 37 37 38 39 39 39 38 35 33 32 31 29 28 30 34 35
30 35 30 36 30 31 32 27 29 28 29 30 27 23 20 18 15 13 15 18 21 26 29 36 41 44 45 46 45 41 40 40 39 39 42 45 46 44 41 42 42 37 36 34 32 32 31 30 28 30 34 37 42 40
25 31 38 33 32 33 33 30 29 27 29 27 22 18 18 18 19 19 19 21 25 31 36 40 44 46 48 43 37 38 41 38 37 40 45 49 48 45 44 40 36 36 35 34 34 33 32 34 36 38 41 44 44 41
18 39 38 34 33 32 31 26 26 28 24 25 25 25 25 25 26 29 30 31 35 37 41 42 46 43 38 38 40 43 42 38 40 43 44 42 44 42 38 37 37 40 41 42 42 42 41 41 44 46 48 46 45 44
40 38 34 33 27 26 20 25 26 25 26 28 27 27 28 28 32 34 33 40 43 43 43 39 37 40 43 43 40 37 35 35 39 37 35 38 38 38 42 44 45 48 50 50 48 47 47 46 47 47 47 46 43 40
43 41 39 29 22 16 23 24 20 20 22 26 27 28 32 34 35 38 43 44 44 41 42 38 33 31 32 34 35 36 34 31 35 40 42 45 47 47 46 48 49 50 48 45 44 44 44 44 43 42 39 36 34 34
41 30 26 25 23 27 21 20 23 23 24 26 30 29 31 31 34 41 46 47 27 12 10 10 14 17 23 30 36 39 39 40 42 47 46 45 46 46 45 43 42 41 40 40 40 40 40 38 37 36 37 35 34 34
18 11 14 14 22 23 29 31 30 26 25 24 26 28 29 28 29 32 38 13 14 18 23 25 26 28 30 32 36 37 38 39 42 44 39 38 35 34 38 41 40 37 31 36 39 40 41 40 39 37 37 38 40 40
10 8 14 16 17 15 18 19 19 19 18 20 22 22 23 20 23 28 19 21 29 32 32 33 32 32 35 35 35 35 35 34 35 35 34 33 34 37 40 42 42 40 40 41 42 43 45 45 46 46 45 42 38 31
9 12 11 11 13 15 17 20 22 24 23 22 23 24 21 22 33 33 34 35 37 36 35 33 32 31 26 24 25 28 29 30 32 34 37 38 38 39 42 44 45 45 44 44 44 43 43 42 41 40 38 35 31 22
13 13 14 14 14 17 17 15 15 16 17 21 25 29 34 37 38 38 37 35 34 33 30 28 24 25 25 27 31 33 32 34 37 39 40 42 41 39 41 42 40 39 38 37 34 33 33 32 31 30 29 26 22 18
7 8 8 8 11 15 15 18 19 20 25 28 32 36 37 33 29 30 30 30 28 27 26 23 22 25 28 33 34 31 31 34 35 41 44 42 40 38 38 37 35 32 30 28 25 23 22 22 21 21 20 17 13 10
3 5 9 14 20 21 20 23 26 26 27 28 28 30 30 29 30 30 29 26 23 19 16 18 23 26 30 32 34 36 32 33 37 35 35 36 36 34 32 31 29 26 24 23 21 20 18 15 13 12 9 7 9 8
11 14 17 20 19 18 18 19 19 18 18 23 24 24 24 24 23 21 13 13 13 14 18 22 24 27 28 29 33 34 36 38 35 35 34 32 30 29 30 28 24 18 16 16 16 14 10 8 5 3 8 8 8 8
7 8 10 13 16 17 17 18 23 27 27 24 23 17 10 8 12 14 13 13 15 17 19 21 24 25 27 31 34 33 36 33 32 31 30 28 26 27 26 24 20 16 13 9 6 5 3 2 6 6 4 4 5 4